Regional Weather Roundup
Issued by NWS Sterling, VA

Home | Current Version | Previous Version | Graphics & Text | Print | Product List | Glossary On
Versions: 1 2 3 4 5 6 7 8 9 10 11 12 13 14 15 16 17 18 19 20 21 22 23 24 25 26 27 28 29 30 31 32 33 34 35 36 37 38 39 40 41 42 43 44 45 46 47 48 49 50
822
ASUS41 KLWX 232111
RWRLWX

REGIONAL WEATHER ROUNDUP
NATIONAL WEATHER SERVICE BALTIMORE MD/WASHINGTON DC
500 PM EDT WED AUG 23 2017

Note: "FAIR" indicates few or no clouds below 12,000 feet
with no significant weather and/or obstructions to visibility.
 TC=TEMPERATURE CELSIUS

 * =Non NWS site. Station does not report precipitation (e.g. rain,
    snow, etc.), thunder, or fog.

DCZ001-MDZ009-015-VAZ040>042-051-053>054-232200-
WASHINGTON METRO

CITY           SKY/WX    TMP DP  RH WIND       PRES   REMARKS
WASHINGTON NAT PTSUNNY   85  61  44 NW13      29.85F
DULLES         MOSUNNY   83  61  47 N8        29.86F
ANDREWS AFB    MOSUNNY   79  70  73 E8        29.85F
FT BELVOIR     MOSUNNY   83  62  49 CALM      29.85F
QUANTICO       PTSUNNY   79  71  76 SW8       29.86F
COLLEGE PARK*  MOSUNNY   82  61  49 NW8       29.85F
LEESBURG*      MOSUNNY   82  63  51 NE10      29.88S
MANASSAS*      MOSUNNY   84  63  49 N8        29.86F
GAITHERSBURG*  SUNNY     81  61  50 CALM      29.89S

$$

MDZ006>007-011-014-232200-
BALTIMORE METRO

CITY           SKY/WX    TMP DP  RH WIND       PRES   REMARKS
BWI AIRPORT    PTSUNNY   81  61  50 N7        29.85F
MD SCIENCE CTR   N/A     84  59  42 MISG      29.85F
MARTIN STATE   PTSUNNY   82  64  54 NW8       29.86F
ANNAPOLIS      CLOUDY    81  71  71 SE8       29.85F
FORT MEADE*    PTSUNNY   81  63  54 NW5       29.88S

$$

MDZ012-015-019>023-232200-
MARYLAND EASTERN SHORE

CITY           SKY/WX    TMP DP  RH WIND       PRES   REMARKS
OCEAN CITY     CLOUDY    77  73  87 N5        29.85R
SALISBURY      CLOUDY    80  71  74 N9        29.84F
BAY BRIDGE AP* MOSUNNY   82  66  57 N5        29.85F
CAMBRIDGE*     PTSUNNY   77  68  73 NW8       29.86F
EASTON*        MOSUNNY   77  66  69 CALM      29.89F

$$

MDZ017>025-232200-
SOUTHERN MARYLAND

CITY           SKY/WX    TMP DP  RH WIND       PRES   REMARKS
PATUXENT RIVER PTSUNNY   76  70  82 N6        29.85F
ST INIGOES     CLOUDY    78  69  73 VRB3      29.85S
LEONARDTOWN*   CLOUDY    73  68  83 CALM      29.87F

$$

MDZ003>005-232200-
NORTH CENTRAL MARYLAND

CITY           SKY/WX    TMP DP  RH WIND       PRES   REMARKS
FREDERICK*     SUNNY     84  55  37 MISG      29.89F
HAGERSTOWN APT MOSUNNY   81  54  39 NW10      29.88F
WESTMINSTER*   SUNNY     82  57  42 N3        29.89S

$$

MDZ501>502-232200-
WESTERN MARYLAND

CITY           SKY/WX    TMP DP  RH WIND       PRES   REMARKS
OAKLAND*       MOSUNNY   64  52  63 CALM      29.98R
CUMBERLAND*    MOSUNNY   82  52  34 NW8       29.93S

$$

VAZ025>031-232200-
SHENANDOAH VALLEY

CITY           SKY/WX    TMP DP  RH WIND       PRES   REMARKS
WINCHESTER*    SUNNY     79  59  50 NW8       29.88S
FRONT ROYAL*   MOSUNNY   81  63  54 N6        29.87S
LURAY*         PTSUNNY   84  59  42 N8        29.87S
NEW MARKET*    CLOUDY    81  59  47 NE9       29.85F
STAUNTON*      PTSUNNY   83  58  42 N6        29.89F
WAYNESBORO*    PTSUNNY   82  64  55 CALM      29.89S

$$

WVZ021-048>050-054>055-232200-
EASTERN WEST VIRGINIA PANHANDLE

CITY           SKY/WX    TMP DP  RH WIND       PRES   REMARKS
MARTINSBURG    MOSUNNY   82  57  42 N9        29.87F
PETERSBURG*    MOSUNNY   83  61  47 NW12      29.90S

$$

VAZ036>039-050-232200-
CENTRAL FOOTHILLS

CITY           SKY/WX    TMP DP  RH WIND       PRES   REMARKS
CHARLOTTESVILL PTSUNNY   81  69  67 E7        29.86S
CULPEPER*      PTSUNNY   83  65  53 N3        29.87S
ORANGE*        CLOUDY    79  68  69 E3        29.86F
GORDONSVILLE*  SUNNY     79  71  74 E5        29.86S
WARRENTON*     CLOUDY    82  60  46 N8        29.86S

$$

VAZ055>057-232200-
NORTH AND CENTRAL PIEDMONT

CITY           SKY/WX    TMP DP  RH WIND       PRES   REMARKS
FREDERICKSBRG* MOSUNNY   78  69  72 CALM      29.86S
STAFFORD*      MOSUNNY   79  71  75 SE3       29.90S

$$

NCZ024-NYZ072-PAZ021-071-VAZ022-071-232200-
OTHER REGIONAL OBSERVATIONS

CITY           SKY/WX    TMP DP  RH WIND       PRES   REMARKS
NEW YORK CITY  MOSUNNY   79  54  41 NW9       29.85F
PHILADELPHIA   PTSUNNY   82  53  36 NW13      29.85S
PITTSBURGH     MOSUNNY   76  53  44 W7        29.95S
ROANOKE        MOSUNNY   88  56  33 NW8       29.90S
RICHMOND       LGT RAIN  74  70  87 NE8       29.86F
RALEIGH        PTSUNNY   83  73  72 CALM      29.82F THUNDER

$$

ANZ530>537-232200-
MARINE OBSERVATIONS

STATION/POSITION TIME  TEMP    WIND        PRES
                       AIR SEA DIR/SP/G
                 (UTC) (F)     (DEG/KT/KT) (MB)
THOMAS PT LIGHT  2100   77 81  200/  6/  6   N/A
BALT KEY BRIDGE  2048   81     290/  7/ 10 1010.5F
COVE POINT       2048   76      40/  7/  8 1011.6F
LEWISETTA        2048   78 81  360/  8/ 12 1010.9F
SOLOMONS ISLAND  2048   76 82   30/  4/  4   N/A
PINEY POINT      2048           60/  3/  4   N/A

$$





USA.gov is the U.S. government's official web portal to all federal, state and local government web resources and services.